Location: Luxembourg
(49.6117°N, 6.1300°E)
Time: 05:27:35
(UTC+01:00)

Envisat - Visible Passes

Search period start: 26 February 2020 00:00
Search period end: 07 March 2020 00:00
Orbit: 764 x 766 km, 98.1° (Epoch: 25 February)

Date Brightness Start Highest point End Pass type
(mag) Time Alt. Az. Time Alt. Az. Time Alt. Az.
26 Feb 6.5 05:46:32 10° ENE 05:48:48 13° E 05:51:05 10° ESE visible
26 Feb 4.2 18:42:37 10° S 18:47:31 49° W 18:52:29 10° NNW visible
27 Feb 4.6 06:46:54 10° NNE 06:51:44 42° E 06:56:32 10° SSE visible
27 Feb 6.2 19:47:27 10° WSW 19:50:22 15° W 19:53:19 10° NW visible
28 Feb 5.9 06:10:47 10° NE 06:14:39 21° E 06:18:28 10° SE visible
28 Feb 5.2 19:08:44 10° SSW 19:13:11 30° W 19:17:39 10° NNW visible
29 Feb 6.8 05:36:57 10° E 05:37:20 10° E 05:37:42 10° E visible
01 Mar 5.0 06:35:44 10° NNE 06:40:22 34° E 06:44:58 10° SSE visible
01 Mar 6.0 19:35:23 10° SW 19:38:55 19° W 19:42:29 10° NW visible
02 Mar 6.2 05:59:51 10° NE 06:03:12 17° E 06:06:32 10° SE visible
02 Mar 4.8 18:57:06 10° SSW 19:01:48 37° W 19:06:31 10° NNW visible
03 Mar 6.6 20:03:19 10° W 20:04:47 11° W 20:06:15 10° WNW visible
04 Mar 5.5 06:24:36 10° NE 06:28:58 28° E 06:33:18 10° SSE visible
04 Mar 5.7 19:23:30 10° SW 19:27:29 23° W 19:31:31 10° NW visible
05 Mar 6.4 05:49:07 10° NE 05:51:45 14° E 05:54:22 10° ESE visible
06 Mar 6.3 19:50:40 10° WSW 19:53:18 14° W 19:55:57 10° NW visible
